Regional Weather Roundup
Issued by NWS

Home | Current Version | Previous Version | Graphics & Text | Print | Product List | Glossary On
Versions: 1 2 3 4 5 6 7 8 9 10 11 12 13 14 15 16 17 18 19 20 21 22 23 24 25 26 27 28 29 30 31 32 33 34 35 36 37 38 39 40 41 42 43 44 45 46 47 48 49 50
000
ASUS45 KPSR 271400
RWRAZ

ARIZONA HOURLY REGIONAL WEATHER ROUNDUP
NATIONAL WEATHER SERVICE PHOENIX AZ
700 AM MST MON JUL 27 2015

NOTE: FAIR INDICATES FEW OR NO CLOUDS BELOW 12,000 FEET WITH NO
SIGNIFICANT WEATHER AND/OR OBSTRUCTIONS TO VISIBILITY.

AZZ001>003-036-271500-
NORTHWEST ARIZONA

CITY           SKY/WX    TMP DP  RH WIND       PRES   REMARKS
KINGMAN        SUNNY     74  31  20 SE10      29.93R
$$

AZZ004>008-015-016-018-271500-
NORTH CENTRAL ARIZONA

CITY           SKY/WX    TMP DP  RH WIND       PRES   REMARKS
GRAND CANYON   SUNNY     61  35  37 S5        30.18R
WILLIAMS       SUNNY     68  30  24 S12       30.26R
PRESCOTT       SUNNY     68  38  33 S5        30.10R
FLAGSTAFF      NOT AVBL
PAYSON         SUNNY     70  37  30 CALM      30.13S
PAGE           SUNNY     78  37  22 S6        29.97R
$$

AZZ009>014-017-271500-
NORTHEAST ARIZONA

CITY           SKY/WX    TMP DP  RH WIND       PRES   REMARKS
WINSLOW        NOT AVBL
SAINT JOHNS    CLOUDY    65  47  52 S7        30.16R
WINDOW ROCK    MOSUNNY   63  48  58 CALM      30.23R
SHOW LOW       PTSUNNY   64  37  36 CALM      30.22R
$$

AZZ023-271500-
GREATER PHOENIX AREA

CITY           SKY/WX    TMP DP  RH WIND       PRES   REMARKS
PHOENIX        MOSUNNY   89  54  30 E5        29.83R
LUKE AFB       SUNNY     86  57  37 SW3       29.83R
DEER VALLEY    SUNNY     85  54  34 CALM      29.86R
SCOTTSDALE     SUNNY     86  55  34 CALM      29.88R
MESA-FALCON    MOSUNNY   84  52  32 E6        29.86R
MESA-GATEWAY   MOSUNNY   81  52  36 E7        29.88R
CHANDLER       MOSUNNY   82  55  39 E6        29.86R
$$

AZZ027-028-271500-
SOUTHWEST MARICOPA COUNTY AND PINAL COUNTY

CITY           SKY/WX    TMP DP  RH WIND       PRES   REMARKS
CASA GRANDE    SUNNY     82  55  39 CALM      29.87R
GILA BEND      FAIR      85  54  34 NW2       29.82R
$$

AZZ503-504-507>509-271500-
SOUTHEAST ARIZONA

CITY           SKY/WX    TMP DP  RH WIND       PRES   REMARKS
TUCSON         CLOUDY    82  59  45 S5        29.97R
DAVIS-MONTHAN  MOSUNNY   81  60  47 S5        29.96R
RYAN FIELD     SUNNY     81  61  50 E3        29.96R
NOGALES        PTSUNNY   72  61  68 S6        30.07R
SIERRA VISTA   PTSUNNY   72  57  60 NE1       30.12R
SAFFORD        PTSUNNY   85  47  26 NW8       29.96R
$$

AZZ020-021-025-026-031-271500-
SOUTHWEST ARIZONA

CITY           SKY/WX    TMP DP  RH WIND       PRES   REMARKS
YUMA           NOT AVBL
$$

CAZ031-033-041-043-047-048-061-271500-
SOUTHERN CALIFORNIA

CITY           SKY/WX    TMP DP  RH WIND       PRES   REMARKS
DOWNTOWN L.A.  CLOUDY    69  59  70 S3        29.92R
L.A. AIRPORT   PTSUNNY   68  59  73 CALM      29.93R
SAN DIEGO      PTSUNNY   69  57  65 S5        29.94S
BURBANK        CLOUDY    68  59  73 CALM      29.93R
ONTARIO        CLOUDY    66  59  78 S3        29.93S
RIVERSIDE      CLOUDY    66  60  81 SW3       29.94R
PALM SPRINGS   SUNNY     78  48  34 NE3       29.79R
EL CENTRO NAS  MOSUNNY   79  30  16 W7        29.78R
IMPERIAL       SUNNY     78  33  19 SW7       29.76R
BLYTHE         SUNNY     81  39  22 S6        29.77R
$$

NVZ020-UTZ003-271500-
SOUTHERN NEVADA-UTAH

CITY           SKY/WX    TMP DP  RH WIND       PRES   REMARKS
LAS VEGAS      NOT AVBL
SALT LAKE CITY MOSUNNY   77  44  30 W8G23     29.82R
$$

NMZ009-TXZ055-271500-
NEW MEXICO-WEST TEXAS

CITY           SKY/WX    TMP DP  RH WIND       PRES   REMARKS
ALBUQUERQUE    MOSUNNY   67  59  75 SE7       30.15S
EL PASO        MOSUNNY   79  57  46 S5        30.01R
$$


........................KEY........................
SKY/WX - SKY CONDITION/WEATHER
TMP    - TEMPERATURE IN FAHRENHEIT
DP     - DEW POINT IN FAHRENHEIT
RH     - RELATIVE HUMIDITY IN PERCENT
WIND   - DIRECTION AND SPEED IN MILES PER HOUR (MPH)
VRB    - VARIABLE WIND DIRECTION
PRES   - MEAN SEA LEVEL PRESSURE IN INCHES OF MERCURY
         F - FALLING PRESSURE   R - RISING PRESSURE
         S - STEADY PRESSURE
VSB    - VISIBILITY IN MILES
HX     - HEAT INDEX IN FAHRENHEIT
WCI    - WIND CHILL INDEX IN FAHRENHEIT
TC     - TEMPERATURE IN CELSIUS WHICH IS ALSO KNOWN AS
         TEMPERATURE IN CENTIGRADE
AFB    - AIR FORCE BASE
         LUKE AFB IS LUKE AIR FORCE BASE
         DAVIS-MONTHAN IS DAVIS-MONTHAN AIR FORCE BASE
NAS    - NAVAL AIR STATION
         EL CENTRO NAS IS EL CENTRO NAVAL AIR STATION
N/A    - NOT AVAILABLE




USA.gov is the U.S. government's official web portal to all federal, state and local government web resources and services.